{"data":{"norad_id":46114,"epoch":"2026-09-20T03:48:44.112960Z","epoch_age_seconds":43831,"freshness":"FRESH","line1":"1 46114U 20056C   26263.15884390  .00000000  00000+0  00000+0 0  9994","line2":"2 46114   0.0218 161.7114 0002334  12.3430 117.1816  1.00270792 22248","mean_motion":1.00270792,"eccentricity":0.0002334,"inclination_deg":0.0218,"raan_deg":161.7114,"arg_perigee_deg":12.343,"mean_anomaly_deg":117.1816,"bstar":0,"rev_number":2224,"period_min":1436.1111259598,"perigee_km":35777.032024022,"apogee_km":35796.714650848,"semimajor_km":42165.010337435,"source":"CELESTRAK","updated_at":"2026-09-20T09:00:46.839721Z"}}